Time,TemperatureF,DewpointF,PressureIn,WindDirection,WindDirectionDegrees,WindSpeedMPH,WindSpeedGustMPH,Humidity,HourlyPrecipIn,Conditions,Clouds,dailyrainin,SoftwareType,DateUTC
2013-06-30 00:01:00,63.9,63.3,29.17,NNE,22,0.0,0.0,98,0.00,,---,0.00,VWS V14.01,2013-06-30 04:01:00,
2013-06-30 00:02:00,63.9,63.3,29.17,NNE,22,0.0,0.0,98,0.00,,---,0.00,VWS V14.01,2013-06-30 04:02:00,
2013-06-30 00:03:00,63.9,63.3,29.17,NNE,22,0.0,0.0,98,0.00,,---,0.00,VWS V14.01,2013-06-30 04:03:00,
2013-06-30 00:06:00,63.9,63.3,29.17,NNE,22,0.0,0.0,98,0.00,,---,0.00,VWS V14.01,2013-06-30 04:06:00,
2013-06-30 00:11:00,63.9,63.3,29.17,NNE,22,0.0,0.0,98,0.00,,---,0.00,VWS V14.01,2013-06-30 04:11:00,
2013-06-30 00:12:00,63.9,63.3,29.17,NNE,22,0.0,0.0,98,0.00,,---,0.00,VWS V14.01,2013-06-30 04:12:00,
2013-06-30 00:18:00,63.7,63.1,29.17,NNE,22,0.0,0.0,98,0.00,,---,0.00,VWS V14.01,2013-06-30 04:18:00,
2013-06-30 00:23:00,63.5,62.9,29.17,NNE,22,0.0,0.0,98,0.00,,---,0.00,VWS V14.01,2013-06-30 04:23:00,
2013-06-30 00:28:00,63.7,63.1,29.17,NNE,22,0.0,0.0,98,0.00,,---,0.00,VWS V14.01,2013-06-30 04:28:00,
2013-06-30 00:33:00,63.9,63.3,29.17,NNE,22,0.0,0.0,98,0.00,,---,0.00,VWS V14.01,2013-06-30 04:33:00,
2013-06-30 00:39:00,63.5,62.9,29.17,NNE,22,0.0,0.0,98,0.00,,---,0.00,VWS V14.01,2013-06-30 04:39:00,
2013-06-30 00:45:00,63.3,62.8,29.17,NNE,22,0.0,0.0,98,0.00,,---,0.00,VWS V14.01,2013-06-30 04:45:00,
2013-06-30 00:50:00,63.1,62.6,29.17,NNE,22,0.0,0.0,98,0.00,,---,0.00,VWS V14.01,2013-06-30 04:50:00,
2013-06-30 00:55:00,63.0,62.4,29.20,NNE,22,0.0,0.0,98,0.00,,---,0.00,VWS V14.01,2013-06-30 04:55:00,
2013-06-30 01:01:00,63.0,62.4,29.20,NNE,22,0.0,0.0,98,0.00,,---,0.00,VWS V14.01,2013-06-30 05:01:00,
2013-06-30 01:07:00,62.8,62.2,29.20,NNE,22,0.0,0.0,98,0.00,,---,0.00,VWS V14.01,2013-06-30 05:07:00,
2013-06-30 01:13:00,63.0,62.4,29.17,NNE,22,0.0,0.0,98,0.00,,---,0.00,VWS V14.01,2013-06-30 05:13:00,
2013-06-30 01:18:00,62.6,62.0,29.17,NNE,22,0.0,0.0,98,0.00,,---,0.00,VWS V14.01,2013-06-30 05:18:00,
2013-06-30 01:24:00,62.4,61.8,29.17,NNE,22,0.0,0.0,98,0.00,,---,0.00,VWS V14.01,2013-06-30 05:24:00,
2013-06-30 01:29:00,62.2,61.7,29.17,NNE,22,0.0,0.0,98,0.00,,---,0.00,VWS V14.01,2013-06-30 05:29:00,
2013-06-30 01:34:00,62.2,61.7,29.17,NNE,22,0.0,0.0,98,0.00,,---,0.00,VWS V14.01,2013-06-30 05:34:00,
2013-06-30 01:39:00,62.1,61.5,29.17,NNE,22,0.0,0.0,98,0.00,,---,0.00,VWS V14.01,2013-06-30 05:39:00,
2013-06-30 01:45:00,61.9,61.3,29.17,NNE,22,0.0,0.0,98,0.00,,---,0.00,VWS V14.01,2013-06-30 05:45:00,
2013-06-30 01:50:00,61.9,61.3,29.17,NNE,22,0.0,0.0,98,0.00,,---,0.00,VWS V14.01,2013-06-30 05:50:00,
2013-06-30 01:55:00,61.7,61.1,29.20,NNE,22,0.0,0.0,98,0.00,,---,0.00,VWS V14.01,2013-06-30 05:55:00,
2013-06-30 02:01:00,61.7,61.1,29.20,NNE,22,0.0,0.0,98,0.00,,---,0.00,VWS V14.01,2013-06-30 06:01:00,
2013-06-30 02:07:00,61.7,61.1,29.20,SW,225,0.0,0.0,98,0.00,,---,0.00,VWS V14.01,2013-06-30 06:07:00,
2013-06-30 02:13:00,61.7,61.1,29.20,SW,225,0.0,0.0,98,0.00,,---,0.00,VWS V14.01,2013-06-30 06:13:00,
2013-06-30 02:19:00,61.5,61.0,29.20,SW,225,0.0,0.0,98,0.00,,---,0.00,VWS V14.01,2013-06-30 06:19:00,
2013-06-30 02:24:00,61.5,61.0,29.20,SW,225,0.0,0.0,98,0.00,,---,0.00,VWS V14.01,2013-06-30 06:24:00,
2013-06-30 02:29:00,61.3,60.8,29.20,SW,225,0.0,0.0,98,0.00,,---,0.00,VWS V14.01,2013-06-30 06:29:00,
2013-06-30 02:34:00,61.2,60.6,29.20,SW,225,0.0,0.0,98,0.00,,---,0.00,VWS V14.01,2013-06-30 06:34:00,
2013-06-30 02:39:00,61.3,60.8,29.20,SW,225,0.0,0.0,98,0.00,,---,0.00,VWS V14.01,2013-06-30 06:39:00,
2013-06-30 02:45:00,61.3,60.8,29.20,SW,225,0.0,0.0,98,0.00,,---,0.00,VWS V14.01,2013-06-30 06:45:00,
2013-06-30 02:50:00,61.3,60.8,29.20,SW,225,0.0,0.0,98,0.00,,---,0.00,VWS V14.01,2013-06-30 06:50:00,
2013-06-30 02:56:00,61.2,60.6,29.20,SW,225,0.0,0.0,98,0.00,,---,0.00,VWS V14.01,2013-06-30 06:56:00,
2013-06-30 03:02:00,61.2,60.6,29.20,SW,225,0.0,0.0,98,0.00,,---,0.00,VWS V14.01,2013-06-30 07:02:00,
2013-06-30 03:08:00,61.2,60.6,29.20,SW,225,0.0,0.0,98,0.00,,---,0.00,VWS V14.01,2013-06-30 07:08:00,
2013-06-30 03:13:00,61.2,60.6,29.20,SW,225,0.0,0.0,98,0.00,,---,0.00,VWS V14.01,2013-06-30 07:13:00,
2013-06-30 03:19:00,61.3,60.8,29.20,SW,225,0.0,0.0,98,0.00,,---,0.00,VWS V14.01,2013-06-30 07:19:00,
2013-06-30 03:24:00,61.3,60.8,29.20,SW,225,0.0,0.0,98,0.00,,---,0.00,VWS V14.01,2013-06-30 07:24:00,
2013-06-30 03:30:00,61.3,60.8,29.20,SW,225,0.0,0.0,98,0.00,,---,0.00,VWS V14.01,2013-06-30 07:30:00,
2013-06-30 03:36:00,61.3,60.8,29.20,SW,225,0.0,0.0,98,0.00,,---,0.00,VWS V14.01,2013-06-30 07:36:00,
2013-06-30 03:41:00,61.3,60.8,29.20,SW,225,0.0,0.0,98,0.00,,---,0.00,VWS V14.01,2013-06-30 07:41:00,
2013-06-30 03:46:00,61.5,61.0,29.20,SW,225,0.0,0.0,98,0.00,,---,0.00,VWS V14.01,2013-06-30 07:46:00,
2013-06-30 03:52:00,61.5,61.0,29.20,SW,225,0.0,0.0,98,0.00,,---,0.00,VWS V14.01,2013-06-30 07:52:00,
2013-06-30 03:57:00,61.5,61.0,29.20,SW,225,0.0,0.0,98,0.00,,---,0.00,VWS V14.01,2013-06-30 07:57:00,
2013-06-30 04:03:00,61.7,61.1,29.20,SW,225,0.0,0.0,98,0.00,,---,0.00,VWS V14.01,2013-06-30 08:03:00,
2013-06-30 04:08:00,61.7,61.1,29.20,SW,225,0.0,0.0,98,0.00,,---,0.00,VWS V14.01,2013-06-30 08:08:00,
2013-06-30 04:13:00,61.7,61.1,29.20,SW,225,0.0,0.0,98,0.00,,---,0.00,VWS V14.01,2013-06-30 08:13:00,
2013-06-30 04:18:00,61.7,61.1,29.20,SW,225,0.0,0.0,98,0.00,,---,0.00,VWS V14.01,2013-06-30 08:18:00,
2013-06-30 04:23:00,61.7,61.1,29.20,SW,225,0.0,0.0,98,0.00,,---,0.00,VWS V14.01,2013-06-30 08:23:00,
2013-06-30 04:28:00,61.7,61.1,29.20,SW,225,0.0,0.0,98,0.00,,---,0.00,VWS V14.01,2013-06-30 08:28:00,
2013-06-30 04:34:00,61.7,61.1,29.20,SW,225,0.0,0.9,98,0.00,,---,0.00,VWS V14.01,2013-06-30 08:34:00,
2013-06-30 04:40:00,61.7,61.1,29.20,SW,225,0.0,0.0,98,0.00,,---,0.00,VWS V14.01,2013-06-30 08:40:00,
2013-06-30 04:45:00,61.7,61.1,29.20,SW,225,0.0,0.0,98,0.00,,---,0.00,VWS V14.01,2013-06-30 08:45:00,
2013-06-30 04:51:00,61.7,61.1,29.20,SW,225,0.0,0.0,98,0.00,,---,0.00,VWS V14.01,2013-06-30 08:51:00,
2013-06-30 04:56:00,61.7,61.1,29.23,SW,225,0.0,0.0,98,0.00,,---,0.00,VWS V14.01,2013-06-30 08:56:00,
2013-06-30 05:01:00,61.7,61.1,29.23,SW,225,0.0,0.0,98,0.00,,---,0.00,VWS V14.01,2013-06-30 09:01:00,
2013-06-30 05:07:00,61.5,61.0,29.23,SW,225,0.0,0.0,98,0.00,,---,0.00,VWS V14.01,2013-06-30 09:07:00,
2013-06-30 05:12:00,61.5,61.0,29.23,SW,225,0.0,0.0,98,0.00,,---,0.00,VWS V14.01,2013-06-30 09:12:00,
2013-06-30 05:17:00,61.7,61.1,29.23,SW,225,0.0,0.0,98,0.00,,---,0.00,VWS V14.01,2013-06-30 09:17:00,
2013-06-30 05:22:00,61.5,61.0,29.23,SW,225,0.0,0.0,98,0.00,,---,0.00,VWS V14.01,2013-06-30 09:22:00,
2013-06-30 05:27:00,61.5,61.0,29.23,SW,225,0.0,0.0,98,0.00,,---,0.00,VWS V14.01,2013-06-30 09:27:00,
2013-06-30 05:32:00,61.7,61.1,29.23,SW,225,0.0,0.0,98,0.00,,---,0.00,VWS V14.01,2013-06-30 09:32:00,
2013-06-30 05:37:00,61.7,61.1,29.23,SW,225,0.0,0.0,98,0.00,,---,0.00,VWS V14.01,2013-06-30 09:37:00,
2013-06-30 05:42:00,61.7,61.1,29.23,SW,225,0.0,0.0,98,0.00,,---,0.00,VWS V14.01,2013-06-30 09:42:00,
2013-06-30 05:47:00,61.7,61.1,29.23,SW,225,0.0,0.0,98,0.00,,---,0.00,VWS V14.01,2013-06-30 09:47:00,
2013-06-30 05:52:00,61.9,61.3,29.23,SW,225,0.0,0.0,98,0.00,,---,0.00,VWS V14.01,2013-06-30 09:52:00,
2013-06-30 05:57:00,61.9,61.3,29.23,SW,225,0.0,0.0,98,0.00,,---,0.00,VWS V14.01,2013-06-30 09:57:00,
2013-06-30 06:03:00,61.9,61.3,29.23,SW,225,0.0,0.0,98,0.00,,---,0.00,VWS V14.01,2013-06-30 10:03:00,
2013-06-30 06:08:00,62.1,61.5,29.23,SW,225,0.0,0.0,98,0.00,,---,0.00,VWS V14.01,2013-06-30 10:08:00,
2013-06-30 06:13:00,62.2,61.7,29.23,SW,225,0.0,0.0,98,0.00,,---,0.00,VWS V14.01,2013-06-30 10:13:00,
2013-06-30 06:18:00,62.4,61.8,29.23,SW,225,0.0,0.0,98,0.00,,---,0.00,VWS V14.01,2013-06-30 10:18:00,
2013-06-30 06:23:00,62.6,62.0,29.23,SW,225,0.0,0.0,98,0.00,,---,0.00,VWS V14.01,2013-06-30 10:23:00,
2013-06-30 06:28:00,62.6,62.0,29.23,WSW,248,0.0,0.9,98,0.00,,---,0.00,VWS V14.01,2013-06-30 10:28:00,
2013-06-30 06:33:00,62.6,62.0,29.23,WNW,292,0.0,0.0,98,0.00,,---,0.00,VWS V14.01,2013-06-30 10:33:00,
2013-06-30 06:39:00,63.0,62.4,29.26,WNW,292,0.0,0.0,98,0.00,,---,0.00,VWS V14.01,2013-06-30 10:39:00,
2013-06-30 06:44:00,63.1,62.6,29.26,WNW,292,0.0,0.0,98,0.00,,---,0.00,VWS V14.01,2013-06-30 10:44:00,
2013-06-30 06:49:00,63.3,62.8,29.26,WSW,248,0.0,0.0,98,0.00,,---,0.00,VWS V14.01,2013-06-30 10:49:00,
2013-06-30 06:54:00,63.5,62.9,29.26,WSW,248,0.0,0.0,98,0.00,,---,0.00,VWS V14.01,2013-06-30 10:54:00,
2013-06-30 06:59:00,63.9,63.3,29.26,WSW,248,0.0,0.0,98,0.00,,---,0.00,VWS V14.01,2013-06-30 10:59:00,
2013-06-30 07:04:00,63.9,63.3,29.26,WSW,248,0.0,0.0,98,0.00,,---,0.00,VWS V14.01,2013-06-30 11:04:00,
2013-06-30 07:09:00,64.2,63.7,29.26,West,270,0.0,0.0,98,0.00,,---,0.00,VWS V14.01,2013-06-30 11:09:00,
2013-06-30 07:14:00,64.2,63.7,29.26,WSW,248,0.0,0.0,98,0.00,,---,0.00,VWS V14.01,2013-06-30 11:14:00,
2013-06-30 07:20:00,64.4,63.8,29.26,ENE,68,0.0,0.0,98,0.00,,---,0.00,VWS V14.01,2013-06-30 11:20:00,
2013-06-30 07:25:00,64.4,63.8,29.26,East,90,0.0,0.0,98,0.00,,---,0.00,VWS V14.01,2013-06-30 11:25:00,
2013-06-30 07:30:00,64.6,64.0,29.26,East,90,0.0,0.0,98,0.00,,---,0.00,VWS V14.01,2013-06-30 11:30:00,
2013-06-30 07:35:00,64.8,64.2,29.26,East,90,0.0,0.0,98,0.00,,---,0.00,VWS V14.01,2013-06-30 11:35:00,
2013-06-30 07:40:00,65.1,64.5,29.29,East,90,0.0,0.0,98,0.00,,---,0.00,VWS V14.01,2013-06-30 11:40:00,
2013-06-30 07:46:00,65.5,64.9,29.29,WNW,292,0.0,1.6,98,0.00,,---,0.00,VWS V14.01,2013-06-30 11:46:00,
2013-06-30 07:51:00,65.5,64.9,29.29,NNE,22,0.0,0.0,98,0.00,,---,0.00,VWS V14.01,2013-06-30 11:51:00,
2013-06-30 07:56:00,66.0,65.4,29.29,NNE,22,0.0,0.0,98,0.00,,---,0.00,VWS V14.01,2013-06-30 11:56:00,
2013-06-30 08:01:00,66.2,65.6,29.29,NNE,22,0.0,0.0,98,0.00,,---,0.00,VWS V14.01,2013-06-30 12:01:00,
2013-06-30 08:07:00,66.6,66.0,29.29,NNE,22,0.0,0.0,98,0.00,,---,0.00,VWS V14.01,2013-06-30 12:07:00,
2013-06-30 08:13:00,67.1,66.5,29.29,NNE,22,0.0,0.0,98,0.00,,---,0.00,VWS V14.01,2013-06-30 12:13:00,
2013-06-30 08:18:00,67.5,66.9,29.29,SSW,202,0.0,0.0,98,0.00,,---,0.00,VWS V14.01,2013-06-30 12:18:00,
2013-06-30 08:24:00,67.8,67.2,29.29,SSW,202,0.0,0.0,98,0.00,,---,0.00,VWS V14.01,2013-06-30 12:24:00,
2013-06-30 08:30:00,68.4,67.8,29.29,ENE,68,0.9,1.3,98,0.00,,---,0.00,VWS V14.01,2013-06-30 12:30:00,
2013-06-30 08:36:00,68.7,68.1,29.29,ENE,68,0.0,0.0,98,0.00,,---,0.00,VWS V14.01,2013-06-30 12:36:00,
2013-06-30 08:42:00,69.1,68.5,29.29,WNW,292,1.6,1.6,98,0.00,,---,0.00,VWS V14.01,2013-06-30 12:42:00,
2013-06-30 08:48:00,69.4,68.8,29.29,North,0,0.0,0.9,98,0.00,,---,0.00,VWS V14.01,2013-06-30 12:48:00,
2013-06-30 08:53:00,70.0,69.1,29.29,ENE,68,0.0,0.0,97,0.00,,---,0.00,VWS V14.01,2013-06-30 12:53:00,
2013-06-30 08:59:00,70.3,69.4,29.29,East,90,1.3,1.3,97,0.00,,---,0.00,VWS V14.01,2013-06-30 12:59:00,
2013-06-30 09:04:00,70.5,69.6,29.29,WNW,292,2.7,3.6,97,0.00,,---,0.00,VWS V14.01,2013-06-30 13:04:00,
2013-06-30 09:09:00,70.5,69.3,29.29,South,180,1.6,3.1,96,0.00,,---,0.00,VWS V14.01,2013-06-30 13:09:00,
2013-06-30 09:15:00,70.7,69.2,29.29,ESE,112,2.2,2.9,95,0.00,,---,0.00,VWS V14.01,2013-06-30 13:15:00,
2013-06-30 09:21:00,70.9,69.4,29.29,ENE,68,1.1,2.7,95,0.00,,---,0.00,VWS V14.01,2013-06-30 13:21:00,
2013-06-30 09:26:00,70.7,68.9,29.29,SSW,202,2.0,2.0,94,0.00,,---,0.00,VWS V14.01,2013-06-30 13:26:00,
2013-06-30 09:32:00,70.9,69.1,29.29,NNE,22,1.1,1.1,94,0.00,,---,0.00,VWS V14.01,2013-06-30 13:32:00,
2013-06-30 09:38:00,71.1,69.2,29.29,East,90,3.4,3.4,94,0.00,,---,0.00,VWS V14.01,2013-06-30 13:38:00,
2013-06-30 09:43:00,71.4,69.6,29.29,West,270,0.0,1.3,94,0.00,,---,0.00,VWS V14.01,2013-06-30 13:43:00,
2013-06-30 09:48:00,71.6,69.5,29.29,North,0,0.0,0.0,93,0.00,,---,0.00,VWS V14.01,2013-06-30 13:48:00,
2013-06-30 09:53:00,71.8,69.7,29.29,WSW,248,2.0,2.0,93,0.00,,---,0.00,VWS V14.01,2013-06-30 13:53:00,
2013-06-30 09:59:00,72.0,69.5,29.29,NNE,22,0.0,0.0,92,0.00,,---,0.00,VWS V14.01,2013-06-30 13:59:00,
2013-06-30 10:05:00,72.3,69.9,29.29,East,90,0.0,1.3,92,0.00,,---,0.00,VWS V14.01,2013-06-30 14:05:00,
2013-06-30 10:10:00,72.5,70.1,29.29,ENE,68,0.0,0.0,92,0.00,,---,0.00,VWS V14.01,2013-06-30 14:10:00,
2013-06-30 10:16:00,72.9,70.1,29.29,WSW,248,0.0,2.5,91,0.00,,---,0.00,VWS V14.01,2013-06-30 14:16:00,
2013-06-30 10:21:00,73.0,70.3,29.29,East,90,2.0,2.5,91,0.00,,---,0.00,VWS V14.01,2013-06-30 14:21:00,
2013-06-30 10:27:00,73.4,70.3,29.29,SE,135,0.9,2.0,90,0.00,,---,0.00,VWS V14.01,2013-06-30 14:27:00,
2013-06-30 10:32:00,73.4,70.0,29.29,SSW,202,0.9,2.0,89,0.00,,---,0.00,VWS V14.01,2013-06-30 14:32:00,
2013-06-30 10:37:00,73.8,70.0,29.29,WNW,292,0.0,0.0,88,0.00,,---,0.00,VWS V14.01,2013-06-30 14:37:00,
2013-06-30 10:43:00,74.3,70.5,29.29,SSW,202,1.6,2.0,88,0.00,,---,0.00,VWS V14.01,2013-06-30 14:43:00,
2013-06-30 10:48:00,74.7,71.2,29.29,ENE,68,0.9,1.1,89,0.00,,---,0.00,VWS V14.01,2013-06-30 14:48:00,
2013-06-30 10:54:00,75.0,71.2,29.26,SE,135,1.1,1.6,88,0.00,,---,0.00,VWS V14.01,2013-06-30 14:54:00,
2013-06-30 10:59:00,75.4,71.2,29.26,NE,45,2.0,2.0,87,0.00,,---,0.00,VWS V14.01,2013-06-30 14:59:00,
2013-06-30 11:05:00,75.7,71.6,29.26,South,180,1.6,1.6,87,0.00,,---,0.00,VWS V14.01,2013-06-30 15:05:00,
2013-06-30 11:11:00,76.1,71.3,29.29,East,90,2.5,2.5,85,0.00,,---,0.00,VWS V14.01,2013-06-30 15:11:00,
2013-06-30 11:17:00,76.8,70.6,29.29,NE,45,1.6,3.4,81,0.00,,---,0.00,VWS V14.01,2013-06-30 15:17:00,
2013-06-30 11:22:00,77.2,70.5,29.29,NE,45,0.0,0.9,80,0.00,,---,0.00,VWS V14.01,2013-06-30 15:22:00,
2013-06-30 11:28:00,77.7,70.7,29.26,NNE,22,2.7,2.9,79,0.00,,---,0.00,VWS V14.01,2013-06-30 15:28:00,
2013-06-30 11:33:00,77.7,70.3,29.26,NNE,22,1.6,2.5,78,0.00,,---,0.00,VWS V14.01,2013-06-30 15:33:00,
2013-06-30 11:39:00,78.1,69.1,29.29,NE,45,2.5,3.4,74,0.00,,---,0.00,VWS V14.01,2013-06-30 15:39:00,
2013-06-30 11:44:00,78.6,69.7,29.29,NE,45,2.0,4.0,74,0.00,,---,0.00,VWS V14.01,2013-06-30 15:44:00,
2013-06-30 11:50:00,79.0,70.4,29.29,SSE,158,0.0,1.6,75,0.00,,---,0.00,VWS V14.01,2013-06-30 15:50:00,
2013-06-30 11:55:00,79.2,70.2,29.26,WSW,248,2.5,2.5,74,0.00,,---,0.00,VWS V14.01,2013-06-30 15:55:00,
2013-06-30 12:01:00,79.7,69.5,29.26,East,90,3.6,3.8,71,0.00,,---,0.00,VWS V14.01,2013-06-30 16:01:00,
2013-06-30 12:06:00,80.2,70.4,29.26,ENE,68,2.9,3.4,72,0.00,,---,0.00,VWS V14.01,2013-06-30 16:06:00,
2013-06-30 12:11:00,80.4,68.9,29.26,SW,225,1.6,2.7,68,0.00,,---,0.00,VWS V14.01,2013-06-30 16:11:00,
2013-06-30 12:17:00,80.4,68.9,29.26,West,270,2.0,2.7,68,0.00,,---,0.00,VWS V14.01,2013-06-30 16:17:00,
2013-06-30 12:23:00,80.8,69.2,29.26,SW,225,0.0,0.0,68,0.00,,---,0.00,VWS V14.01,2013-06-30 16:23:00,
2013-06-30 12:29:00,81.1,68.7,29.26,NNE,22,2.2,2.2,66,0.00,,---,0.00,VWS V14.01,2013-06-30 16:29:00,
2013-06-30 12:34:00,81.1,68.7,29.26,WSW,248,1.1,1.6,66,0.00,,---,0.00,VWS V14.01,2013-06-30 16:34:00,
2013-06-30 12:40:00,81.7,69.2,29.26,WNW,292,1.6,6.5,66,0.00,,---,0.00,VWS V14.01,2013-06-30 16:40:00,
2013-06-30 12:46:00,81.7,68.3,29.26,West,270,0.0,2.9,64,0.00,,---,0.00,VWS V14.01,2013-06-30 16:46:00,
2013-06-30 12:51:00,81.7,67.9,29.26,ENE,68,3.1,3.6,63,0.00,,---,0.00,VWS V14.01,2013-06-30 16:51:00,
2013-06-30 12:56:00,81.9,68.5,29.26,SW,225,2.5,3.4,64,0.00,,---,0.00,VWS V14.01,2013-06-30 16:56:00,
2013-06-30 13:01:00,81.7,68.3,29.26,NE,45,2.0,2.0,64,0.00,,---,0.00,VWS V14.01,2013-06-30 17:01:00,
2013-06-30 13:07:00,82.0,69.1,29.26,West,270,0.0,0.0,65,0.00,,---,0.00,VWS V14.01,2013-06-30 17:07:00,
2013-06-30 13:12:00,82.2,68.8,29.26,North,0,3.8,3.8,64,0.00,,---,0.00,VWS V14.01,2013-06-30 17:12:00,
2013-06-30 13:17:00,82.8,68.9,29.26,ESE,112,4.3,4.7,63,0.00,,---,0.00,VWS V14.01,2013-06-30 17:17:00,
2013-06-30 13:23:00,82.8,68.9,29.26,SSW,202,0.0,1.1,63,0.00,,---,0.00,VWS V14.01,2013-06-30 17:23:00,
2013-06-30 13:28:00,82.8,68.4,29.26,ESE,112,3.6,3.6,62,0.00,,---,0.00,VWS V14.01,2013-06-30 17:28:00,
2013-06-30 13:33:00,82.8,67.5,29.26,SE,135,3.1,3.4,60,0.00,,---,0.00,VWS V14.01,2013-06-30 17:33:00,
2013-06-30 13:38:00,82.9,68.6,29.26,SSW,202,1.1,2.2,62,0.00,,---,0.00,VWS V14.01,2013-06-30 17:38:00,
2013-06-30 13:43:00,83.1,68.8,29.26,SW,225,2.0,2.0,62,0.00,,---,0.00,VWS V14.01,2013-06-30 17:43:00,
2013-06-30 13:48:00,83.5,68.6,29.26,WSW,248,0.0,1.3,61,0.00,,---,0.00,VWS V14.01,2013-06-30 17:48:00,
2013-06-30 13:53:00,83.7,68.3,29.26,East,90,6.3,6.3,60,0.00,,---,0.00,VWS V14.01,2013-06-30 17:53:00,
2013-06-30 13:58:00,83.1,66.8,29.26,West,270,0.0,2.2,58,0.00,,---,0.00,VWS V14.01,2013-06-30 17:58:00,
2013-06-30 14:03:00,82.9,67.2,29.26,SW,225,0.0,1.1,59,0.00,,---,0.00,VWS V14.01,2013-06-30 18:03:00,
2013-06-30 14:08:00,82.9,67.2,29.26,NNW,338,0.0,0.9,59,0.00,,---,0.00,VWS V14.01,2013-06-30 18:08:00,
2013-06-30 14:14:00,82.9,67.6,29.26,NE,45,0.0,0.0,60,0.00,,---,0.00,VWS V14.01,2013-06-30 18:14:00,
2013-06-30 14:19:00,83.3,67.5,29.26,NE,45,3.1,3.1,59,0.00,,---,0.00,VWS V14.01,2013-06-30 18:19:00,
2013-06-30 14:25:00,83.5,67.7,29.26,South,180,1.6,4.3,59,0.00,,---,0.00,VWS V14.01,2013-06-30 18:25:00,
2013-06-30 14:30:00,83.7,67.3,29.26,WSW,248,0.0,1.1,58,0.00,,---,0.00,VWS V14.01,2013-06-30 18:30:00,
2013-06-30 14:35:00,83.8,67.5,29.26,East,90,1.1,2.5,58,0.00,,---,0.00,VWS V14.01,2013-06-30 18:35:00,
2013-06-30 14:40:00,84.0,68.2,29.26,SW,225,0.0,1.3,59,0.00,,---,0.00,VWS V14.01,2013-06-30 18:40:00,
2013-06-30 14:46:00,83.8,67.5,29.26,SW,225,2.0,2.0,58,0.00,,---,0.00,VWS V14.01,2013-06-30 18:46:00,
2013-06-30 14:51:00,83.7,68.3,29.26,NNE,22,2.2,2.9,60,0.00,,---,0.00,VWS V14.01,2013-06-30 18:51:00,
2013-06-30 14:57:00,83.5,67.2,29.26,SSW,202,0.0,2.2,58,0.00,,---,0.00,VWS V14.01,2013-06-30 18:57:00,
2013-06-30 15:01:00,83.3,67.0,29.26,SSE,158,2.5,2.7,58,0.00,,---,0.00,VWS V14.01,2013-06-30 19:01:00,
2013-06-30 15:08:00,83.3,67.5,29.26,SSW,202,0.0,0.0,59,0.00,,---,0.00,VWS V14.01,2013-06-30 19:08:00,
2013-06-30 15:13:00,83.5,68.2,29.26,SW,225,0.0,0.0,60,0.00,,---,0.00,VWS V14.01,2013-06-30 19:13:00,
2013-06-30 15:19:00,83.8,69.0,29.26,SSW,202,0.0,1.1,61,0.00,,---,0.00,VWS V14.01,2013-06-30 19:19:00,
2013-06-30 15:23:00,84.0,68.7,29.26,North,0,0.0,1.3,60,0.00,,---,0.00,VWS V14.01,2013-06-30 19:23:00,
2013-06-30 15:28:00,84.6,68.7,29.26,SW,225,0.9,1.3,59,0.00,,---,0.00,VWS V14.01,2013-06-30 19:28:00,
2013-06-30 15:33:00,84.9,69.0,29.26,ENE,68,2.9,3.6,59,0.00,,---,0.00,VWS V14.01,2013-06-30 19:33:00,
2013-06-30 15:38:00,84.9,69.5,29.26,SSW,202,1.6,3.4,60,0.00,,---,0.00,VWS V14.01,2013-06-30 19:38:00,
2013-06-30 15:43:00,84.6,68.2,29.26,WSW,248,1.3,2.5,58,0.00,,---,0.00,VWS V14.01,2013-06-30 19:43:00,
2013-06-30 15:48:00,84.2,68.3,29.26,NW,315,0.0,2.5,59,0.00,,---,0.00,VWS V14.01,2013-06-30 19:48:00,
2013-06-30 15:53:00,84.4,68.0,29.26,NNE,22,0.0,0.0,58,0.00,,---,0.00,VWS V14.01,2013-06-30 19:53:00,
2013-06-30 15:58:00,84.6,68.7,29.26,WNW,292,1.6,2.0,59,0.00,,---,0.00,VWS V14.01,2013-06-30 19:58:00,
2013-06-30 16:03:00,84.4,68.0,29.26,SSW,202,2.7,4.7,58,0.00,,---,0.00,VWS V14.01,2013-06-30 20:03:00,
2013-06-30 16:08:00,84.4,67.5,29.26,NNE,22,2.2,2.9,57,0.00,,---,0.00,VWS V14.01,2013-06-30 20:08:00,
2013-06-30 16:11:00,84.4,67.0,29.26,SW,225,0.0,2.7,56,0.00,,---,0.00,VWS V14.01,2013-06-30 20:11:00,
2013-06-30 16:17:00,84.6,68.2,29.26,NNE,22,1.3,2.0,58,0.00,,---,0.00,VWS V14.01,2013-06-30 20:17:00,
2013-06-30 16:22:00,84.7,68.8,29.26,South,180,0.0,1.3,59,0.00,,---,0.00,VWS V14.01,2013-06-30 20:22:00,
2013-06-30 16:27:00,84.6,68.2,29.26,SW,225,1.1,3.8,58,0.00,,---,0.00,VWS V14.01,2013-06-30 20:27:00,
2013-06-30 16:32:00,84.6,68.2,29.26,SSW,202,1.1,3.8,58,0.00,,---,0.00,VWS V14.01,2013-06-30 20:32:00,
2013-06-30 16:37:00,84.6,68.2,29.26,SSW,202,3.1,3.1,58,0.00,,---,0.00,VWS V14.01,2013-06-30 20:37:00,
2013-06-30 16:43:00,84.6,68.2,29.26,SW,225,1.3,1.3,58,0.00,,---,0.00,VWS V14.01,2013-06-30 20:43:00,
2013-06-30 16:48:00,84.2,67.3,29.26,North,0,1.1,3.6,57,0.00,,---,0.00,VWS V14.01,2013-06-30 20:48:00,
2013-06-30 16:53:00,83.7,66.8,29.26,SW,225,0.0,0.0,57,0.00,,---,0.00,VWS V14.01,2013-06-30 20:53:00,
2013-06-30 16:58:00,83.7,67.3,29.26,NE,45,0.0,0.0,58,0.00,,---,0.00,VWS V14.01,2013-06-30 20:58:00,
2013-06-30 17:04:00,83.5,67.2,29.26,East,90,0.0,0.0,58,0.00,,---,0.00,VWS V14.01,2013-06-30 21:04:00,
2013-06-30 17:10:00,83.5,68.2,29.29,ENE,68,0.0,0.0,60,0.00,,---,0.00,VWS V14.01,2013-06-30 21:10:00,
2013-06-30 17:15:00,83.3,68.0,29.29,SW,225,0.0,0.0,60,0.00,,---,0.00,VWS V14.01,2013-06-30 21:15:00,
2013-06-30 17:21:00,82.9,67.6,29.29,WSW,248,0.0,0.0,60,0.00,,---,0.00,VWS V14.01,2013-06-30 21:21:00,
2013-06-30 17:26:00,82.8,67.9,29.26,WSW,248,0.0,0.0,61,0.00,,---,0.00,VWS V14.01,2013-06-30 21:26:00,
2013-06-30 17:31:00,82.4,67.6,29.26,WSW,248,0.0,0.0,61,0.00,,---,0.00,VWS V14.01,2013-06-30 21:31:00,
2013-06-30 17:37:00,82.2,67.9,29.26,WSW,248,0.0,0.0,62,0.00,,---,0.00,VWS V14.01,2013-06-30 21:37:00,
2013-06-30 17:42:00,82.0,68.2,29.26,WSW,248,0.0,0.0,63,0.00,,---,0.00,VWS V14.01,2013-06-30 21:42:00,
2013-06-30 17:47:00,82.0,68.2,29.26,WSW,248,0.0,0.0,63,0.00,,---,0.00,VWS V14.01,2013-06-30 21:47:00,
2013-06-30 17:52:00,81.7,68.3,29.26,WSW,248,0.0,0.0,64,0.00,,---,0.00,VWS V14.01,2013-06-30 21:52:00,
2013-06-30 17:57:00,81.5,68.2,29.29,NE,45,1.1,1.1,64,0.00,,---,0.00,VWS V14.01,2013-06-30 21:57:00,
2013-06-30 18:03:00,81.0,67.2,29.29,WSW,248,0.0,0.9,63,0.00,,---,0.00,VWS V14.01,2013-06-30 22:03:00,
2013-06-30 18:09:00,80.6,66.8,29.29,South,180,2.0,2.0,63,0.00,,---,0.00,VWS V14.01,2013-06-30 22:09:00,
2013-06-30 18:14:00,80.1,66.8,29.29,West,270,0.0,2.9,64,0.00,,---,0.00,VWS V14.01,2013-06-30 22:14:00,
2013-06-30 18:20:00,79.9,66.6,29.29,NNE,22,0.0,2.5,64,0.00,,---,0.00,VWS V14.01,2013-06-30 22:20:00,
2013-06-30 18:25:00,79.5,66.7,29.29,West,270,0.9,2.0,65,0.00,,---,0.00,VWS V14.01,2013-06-30 22:25:00,
2013-06-30 18:31:00,79.2,66.4,29.29,NNE,22,0.0,0.0,65,0.00,,---,0.00,VWS V14.01,2013-06-30 22:31:00,
2013-06-30 18:36:00,79.0,66.2,29.29,NNE,22,0.0,0.0,65,0.00,,---,0.00,VWS V14.01,2013-06-30 22:36:00,
2013-06-30 18:42:00,78.8,66.1,29.29,NNE,22,0.0,0.0,65,0.00,,---,0.00,VWS V14.01,2013-06-30 22:42:00,
2013-06-30 18:48:00,78.6,65.9,29.29,NNE,22,0.0,0.0,65,0.00,,---,0.00,VWS V14.01,2013-06-30 22:48:00,
2013-06-30 18:53:00,78.4,65.7,29.32,NNE,22,0.0,0.0,65,0.00,,---,0.00,VWS V14.01,2013-06-30 22:53:00,
2013-06-30 18:59:00,77.9,66.1,29.32,NNE,22,0.0,0.0,67,0.00,,---,0.00,VWS V14.01,2013-06-30 22:59:00,
2013-06-30 19:05:00,77.5,65.7,29.32,NNE,22,0.0,0.0,67,0.00,,---,0.00,VWS V14.01,2013-06-30 23:05:00,
2013-06-30 19:11:00,77.2,65.4,29.32,NNE,22,0.0,0.0,67,0.00,,---,0.00,VWS V14.01,2013-06-30 23:11:00,
2013-06-30 19:16:00,76.8,65.5,29.32,NNE,22,0.0,0.0,68,0.00,,---,0.00,VWS V14.01,2013-06-30 23:16:00,
2013-06-30 19:21:00,76.5,65.5,29.32,SSW,202,1.3,1.3,69,0.00,,---,0.00,VWS V14.01,2013-06-30 23:21:00,
2013-06-30 19:26:00,76.1,66.0,29.32,SSW,202,0.0,0.0,71,0.00,,---,0.00,VWS V14.01,2013-06-30 23:26:00,
2013-06-30 19:32:00,75.7,65.7,29.32,ENE,68,0.0,1.3,71,0.00,,---,0.00,VWS V14.01,2013-06-30 23:32:00,
2013-06-30 19:37:00,75.4,65.7,29.32,SW,225,0.0,0.0,72,0.00,,---,0.00,VWS V14.01,2013-06-30 23:37:00,
2013-06-30 19:43:00,75.2,66.0,29.32,ENE,68,1.3,1.6,73,0.00,,---,0.00,VWS V14.01,2013-06-30 23:43:00,
2013-06-30 19:48:00,75.0,65.8,29.32,ENE,68,0.0,0.0,73,0.00,,---,0.00,VWS V14.01,2013-06-30 23:48:00,
2013-06-30 19:54:00,74.8,65.6,29.32,ENE,68,1.1,2.0,73,0.00,,---,0.00,VWS V14.01,2013-06-30 23:54:00,
2013-06-30 19:59:00,74.7,65.8,29.32,ENE,68,1.3,3.4,74,0.00,,---,0.00,VWS V14.01,2013-06-30 23:59:00,
2013-06-30 20:05:00,74.5,65.7,29.32,NNE,22,2.5,3.4,74,0.00,,---,0.00,VWS V14.01,2013-07-01 00:05:00,
2013-06-30 20:10:00,74.3,66.2,29.32,ENE,68,4.3,4.3,76,0.00,,---,0.00,VWS V14.01,2013-07-01 00:10:00,
2013-06-30 20:15:00,73.9,66.3,29.32,ENE,68,2.9,3.1,77,0.00,,---,0.00,VWS V14.01,2013-07-01 00:15:00,
2013-06-30 20:20:00,73.8,66.1,29.32,NE,45,2.7,3.6,77,0.00,,---,0.00,VWS V14.01,2013-07-01 00:20:00,
2013-06-30 20:25:00,73.6,66.3,29.32,NE,45,2.9,2.9,78,0.00,,---,0.00,VWS V14.01,2013-07-01 00:25:00,
2013-06-30 20:31:00,73.2,66.7,29.32,East,90,3.4,3.4,80,0.00,,---,0.00,VWS V14.01,2013-07-01 00:31:00,
2013-06-30 20:37:00,73.0,66.5,29.32,North,0,2.5,3.1,80,0.00,,---,0.00,VWS V14.01,2013-07-01 00:37:00,
2013-06-30 20:43:00,73.0,66.9,29.32,ENE,68,1.6,3.8,81,0.00,,---,0.00,VWS V14.01,2013-07-01 00:43:00,
2013-06-30 20:48:00,72.9,66.7,29.32,NNE,22,2.5,3.8,81,0.00,,---,0.00,VWS V14.01,2013-07-01 00:48:00,
2013-06-30 20:53:00,72.7,66.9,29.35,NE,45,2.2,3.4,82,0.00,,---,0.00,VWS V14.01,2013-07-01 00:53:00,
2013-06-30 20:58:00,72.7,66.9,29.35,East,90,1.6,2.5,82,0.00,,---,0.00,VWS V14.01,2013-07-01 00:58:00,
2013-06-30 21:04:00,72.7,67.2,29.35,NE,45,2.5,2.5,83,0.00,,---,0.00,VWS V14.01,2013-07-01 01:04:00,
2013-06-30 21:09:00,72.5,67.1,29.35,NE,45,0.0,0.0,83,0.00,,---,0.00,VWS V14.01,2013-07-01 01:09:00,
2013-06-30 21:14:00,72.5,67.4,29.35,NW,315,0.0,0.0,84,0.00,,---,0.00,VWS V14.01,2013-07-01 01:14:00,
2013-06-30 21:20:00,72.3,67.2,29.35,NW,315,0.0,0.0,84,0.00,,---,0.00,VWS V14.01,2013-07-01 01:20:00,
2013-06-30 21:25:00,72.1,67.0,29.35,NW,315,1.3,1.6,84,0.00,,---,0.00,VWS V14.01,2013-07-01 01:25:00,
2013-06-30 21:30:00,72.1,67.0,29.35,WSW,248,0.0,0.0,84,0.00,,---,0.00,VWS V14.01,2013-07-01 01:30:00,
2013-06-30 21:35:00,72.1,67.0,29.35,WSW,248,0.0,0.0,84,0.00,,---,0.00,VWS V14.01,2013-07-01 01:35:00,
2013-06-30 21:41:00,72.1,67.4,29.35,SSW,202,2.2,2.5,85,0.00,,---,0.00,VWS V14.01,2013-07-01 01:41:00,
2013-06-30 21:46:00,72.0,67.2,29.35,South,180,0.0,0.0,85,0.00,,---,0.00,VWS V14.01,2013-07-01 01:46:00,
2013-06-30 21:51:00,72.0,67.2,29.35,SSW,202,0.9,1.1,85,0.00,,---,0.00,VWS V14.01,2013-07-01 01:51:00,
2013-06-30 21:57:00,71.8,67.0,29.38,South,180,2.2,2.2,85,0.00,,---,0.00,VWS V14.01,2013-07-01 01:57:00,
2013-06-30 22:03:00,71.8,67.4,29.38,South,180,0.0,2.0,86,0.00,,---,0.00,VWS V14.01,2013-07-01 02:03:00,
2013-06-30 22:08:00,71.6,67.2,29.38,South,180,0.0,0.0,86,0.00,,---,0.00,VWS V14.01,2013-07-01 02:08:00,
2013-06-30 22:13:00,71.6,67.2,29.38,South,180,0.0,0.0,86,0.00,,---,0.00,VWS V14.01,2013-07-01 02:13:00,
2013-06-30 22:18:00,71.4,67.3,29.38,South,180,0.0,0.0,87,0.00,,---,0.00,VWS V14.01,2013-07-01 02:18:00,
2013-06-30 22:23:00,71.4,67.3,29.38,South,180,0.0,0.0,87,0.00,,---,0.00,VWS V14.01,2013-07-01 02:23:00,
2013-06-30 22:28:00,71.2,67.2,29.38,South,180,0.0,0.0,87,0.00,,---,0.00,VWS V14.01,2013-07-01 02:28:00,
2013-06-30 22:33:00,71.1,67.0,29.38,South,180,0.0,0.0,87,0.00,,---,0.00,VWS V14.01,2013-07-01 02:33:00,
2013-06-30 22:38:00,71.1,66.7,29.38,South,180,0.0,0.0,86,0.00,,---,0.00,VWS V14.01,2013-07-01 02:38:00,
2013-06-30 22:43:00,70.9,66.5,29.38,South,180,1.1,1.3,86,0.00,,---,0.00,VWS V14.01,2013-07-01 02:43:00,
2013-06-30 22:49:00,70.7,66.3,29.38,South,180,0.0,1.1,86,0.00,,---,0.00,VWS V14.01,2013-07-01 02:49:00,
2013-06-30 22:54:00,70.7,66.3,29.38,South,180,2.0,2.7,86,0.00,,---,0.00,VWS V14.01,2013-07-01 02:54:00,
2013-06-30 22:59:00,70.5,66.1,29.38,South,180,1.1,1.1,86,0.00,,---,0.00,VWS V14.01,2013-07-01 02:59:00,
2013-06-30 23:05:00,70.3,66.3,29.38,South,180,0.0,0.0,87,0.00,,---,0.00,VWS V14.01,2013-07-01 03:05:00,
2013-06-30 23:10:00,70.2,66.1,29.38,SSE,158,2.2,2.2,87,0.00,,---,0.00,VWS V14.01,2013-07-01 03:10:00,
2013-06-30 23:15:00,70.2,66.1,29.38,SSE,158,0.0,0.0,87,0.00,,---,0.00,VWS V14.01,2013-07-01 03:15:00,
2013-06-30 23:20:00,70.0,65.9,29.38,SSE,158,0.0,0.0,87,0.00,,---,0.00,VWS V14.01,2013-07-01 03:20:00,
2013-06-30 23:25:00,70.0,65.9,29.38,SSE,158,0.0,0.0,87,0.00,,---,0.00,VWS V14.01,2013-07-01 03:25:00,
2013-06-30 23:30:00,69.8,66.1,29.38,South,180,0.0,0.0,88,0.00,,---,0.00,VWS V14.01,2013-07-01 03:30:00,
2013-06-30 23:35:00,69.8,66.1,29.38,South,180,0.0,0.0,88,0.00,,---,0.00,VWS V14.01,2013-07-01 03:35:00,
2013-06-30 23:40:00,69.8,66.1,29.38,South,180,0.0,0.0,88,0.00,,---,0.00,VWS V14.01,2013-07-01 03:40:00,
2013-06-30 23:45:00,69.8,66.1,29.38,South,180,0.0,0.0,88,0.00,,---,0.00,VWS V14.01,2013-07-01 03:45:00,
2013-06-30 23:49:00,69.6,66.2,29.38,South,180,0.0,0.0,89,0.00,,---,0.00,VWS V14.01,2013-07-01 03:49:00,
2013-06-30 23:54:00,69.6,66.2,29.38,South,180,0.0,0.0,89,0.00,,---,0.00,VWS V14.01,2013-07-01 03:54:00,
2013-06-30 23:59:00,69.4,66.1,29.38,South,180,0.0,0.0,89,0.00,,---,0.00,VWS V14.01,2013-07-01 03:59:00,